EW4221 Weather Reports


Display with metric or nautical units.
time (UTC)temp
F
wind
direction
speed
MPH
gust
MPH
rain 1hr
in
rain 24hr
in
rain mn
in
humidity
%
barometer
mb
20260905021506 67 325 1.0 4.0 0.00 0.40 0.00 83 1011.4
20260905020004 67 5 1.0 8.0 0.00 0.40 0.00 81 1011.5
20260905014502 68 336 0.0 4.0 0.00 0.40 0.00 84 1011.6
20260905013005 68 326 2.0 5.0 0.00 0.40 0.00 83 1011.8
20260905011502 68 5 3.0 5.0 0.00 0.40 0.00 81 1011.7
20260905010001 69 350 3.0 6.0 0.00 0.40 0.00 80 1011.6
20260905004601 69 340 3.0 6.0 0.00 0.40 0.00 80 1011.5
20260905003102 69 360 3.0 8.0 0.00 0.40 0.00 78 1011.2
20260905001600 69 18 2.0 6.0 0.00 0.40 0.00 78 1011.1
20260905000131 69 5 3.0 8.0 0.00 0.40 0.00 77 1011.0
20260904234556 69 350 2.0 4.0 0.00 0.40 0.00 77 1011.0
20260904234521 69 27 2.0 4.0 0.00 0.40 0.00 77 1011.0
20260904233109 70 335 1.0 4.0 0.00 0.40 0.00 77 1010.9
20260904231656 70 346 2.0 4.0 0.00 0.40 0.00 76 1010.8
20260904230106 71 332 2.0 4.0 0.00 0.40 0.00 75 1010.8
20260904223105 72 348 2.0 5.0 0.00 0.40 0.00 72 1010.7
20260904221558 73 288 2.0 8.0 0.00 0.40 0.00 70 1010.6
20260904220046 74 355 3.0 8.0 0.00 0.40 0.00 68 1010.5
20260904214549 74 313 2.0 5.0 0.00 0.40 0.00 70 1010.4
20260904213142 74 29 2.0 9.0 0.00 0.40 0.00 69 1010.6
20260904211542 73 30 2.0 6.0 0.00 0.40 0.00 70 1010.6
20260904210040 75 355 3.0 10.0 0.00 0.40 0.00 68 1010.7
20260904204539 75 283 4.0 13.0 0.00 0.40 0.00 67 1010.9
20260904203038 75 333 3.0 9.0 0.00 0.40 0.00 68 1010.9
20260904201542 75 342 3.0 11.0 0.00 0.40 0.00 71 1011.0
20260904200048 75 324 3.0 12.0 0.00 0.40 0.00 68 1011.1
20260904194536 75 17 3.0 10.0 0.00 0.40 0.00 67 1011.2
20260904193040 76 301 6.0 13.0 0.00 0.40 0.00 62 1011.4
20260904191535 76 13 5.0 11.0 0.00 0.40 0.00 64 1011.4
20260904190034 76 246 5.0 13.0 0.00 0.40 0.00 65 1011.5
20260904184533 76 245 6.0 11.0 0.00 0.40 0.00 66 1011.7
20260904183031 76 348 4.0 12.0 0.00 0.40 0.00 66 1012.0
20260904181529 76 276 7.0 14.0 0.00 0.40 0.00 65 1011.9
20260904180029 76 323 4.0 9.0 0.00 0.40 0.00 64 1012.2
20260904174527 76 307 5.0 12.0 0.00 0.40 0.00 65 1012.3
20260904173023 75 336 5.0 14.0 0.00 0.40 0.00 70 1012.4
20260904171548 74 280 5.0 11.0 0.00 0.40 0.00 68 1012.5
20260904170021 74 355 4.0 11.0 0.00 0.40 0.00 69 1012.6
20260904164520 74 321 9.0 14.0 0.00 0.40 0.00 67 1012.5
20260904163038 74 345 6.0 11.0 0.00 0.40 0.00 64 1012.7
20260904161516 74 319 6.0 11.0 0.00 0.40 0.00 64 1012.7
20260904160014 73 288 6.0 13.0 0.00 0.40 0.00 66 1012.7
20260904154514 73 290 5.0 11.0 0.00 0.40 0.00 67 1012.7
20260904153009 73 338 6.0 10.0 0.00 0.40 0.00 71 1012.9
20260904151503 71 277 0.0 3.0 0.00 0.40 0.00 74 1012.6
20260904150100 70 48 0.0 4.0 0.00 0.40 0.00 77 1012.5
20260904144612 69 267 3.0 9.0 0.00 0.40 0.00 77 1012.6
20260904143118 70 285 3.0 12.0 0.00 0.40 0.00 77 1012.7
20260904141556 70 279 6.0 13.0 0.00 0.40 0.00 79 1012.7
20260904140054 69 24 2.0 10.0 0.00 0.40 0.00 86 1012.6
20260904134555 69 17 3.0 9.0 0.00 0.40 0.00 91 1012.7
20260904133106 68 295 3.0 8.0 0.00 0.40 0.00 93 1012.5
20260904131548 68 5 3.0 8.0 0.00 0.40 0.00 94 1012.4
20260904130044 68 36 3.0 7.0 0.00 0.40 0.00 95 1012.3
20260904124544 68 360 2.0 5.0 0.00 0.40 0.00 95 1012.4
20260904123044 68 41 2.0 6.0 0.00 0.40 0.00 95 1012.4
20260904121540 68 335 2.0 9.0 0.00 0.40 0.00 95 1012.3
20260904120045 68 258 3.0 8.0 0.00 0.40 0.00 95 1012.1
20260904114537 67 311 1.0 7.0 0.00 0.40 0.00 95 1012.2
20260904113038 67 355 1.0 6.0 0.00 0.40 0.00 96 1012.2
20260904111533 68 251 1.0 4.0 0.00 0.40 0.00 96 1012.3
20260904110031 68 306 2.0 4.0 0.00 0.40 0.00 96 1012.1
20260904104530 68 325 0.0 5.0 0.00 0.41 0.00 96 1012.0
20260904103028 68 317 2.0 7.0 0.00 0.41 0.00 96 1011.9
20260904101526 67 331 4.0 8.0 0.00 0.41 0.00 96 1011.8
20260904100023 67 331 2.0 5.0 0.00 0.41 0.00 96 1011.7
20260904094530 68 321 1.0 4.0 0.00 0.42 0.00 96 1011.8
20260904093021 68 219 0.0 4.0 0.00 0.42 0.00 96 1011.7
20260904091521 68 236 0.0 6.0 0.00 0.42 0.00 96 1011.6
20260904090024 68 319 0.0 5.0 0.00 0.42 0.00 96 1011.6
20260904084521 68 351 1.0 7.0 0.00 0.42 0.00 96 1011.4
20260904083017 68 291 2.0 8.0 0.00 0.42 0.00 96 1011.2
20260904081515 69 260 3.0 7.0 0.00 0.42 0.00 96 1011.1
20260904080012 69 252 4.0 8.0 0.00 0.42 0.00 96 1010.9
20260904074511 69 279 1.0 5.0 0.00 0.42 0.00 96 1010.9
20260904073011 69 326 3.0 8.0 0.00 0.42 0.00 96 1010.6
20260904071552 69 280 2.0 6.0 0.00 0.42 0.00 96 1010.4
20260904070057 69 331 2.0 6.0 0.00 0.42 0.00 96 1010.3
20260904064549 69 355 1.0 8.0 0.00 0.44 0.00 96 1010.4
20260904063109 69 348 3.0 10.0 0.00 0.44 0.00 96 1010.4
20260904061552 70 5 2.0 6.0 0.00 0.44 0.00 96 1010.5
20260904060145 70 37 2.0 7.0 0.00 0.44 0.00 96 1010.6
20260904054547 70 5 4.0 8.0 0.00 0.50 0.00 96 1010.9
20260904053055 70 346 3.0 6.0 0.00 0.50 0.00 96 1010.9
20260904051542 70 360 3.0 6.0 0.00 0.50 0.00 96 1010.9
20260904050039 70 339 2.0 5.0 0.00 0.50 0.00 96 1010.8
20260904044540 70 324 2.0 4.0 0.00 0.59 0.00 96 1011.1
20260904043050 70 321 1.0 9.0 0.00 0.59 0.00 96 1011.1
20260904041535 69 289 2.0 4.0 0.01 0.59 0.00 96 1011.2
20260904040032 69 252 0.0 3.0 0.20 0.59 0.00 96 1011.3
20260904034532 69 279 1.0 5.0 0.40 0.77 0.59 95 1011.3
20260904033033 70 350 3.0 6.0 0.40 0.77 0.59 95 1011.3
20260904031528 70 330 5.0 12.0 0.38 0.75 0.56 95 1011.1
20260904030035 71 317 8.0 14.0 0.20 0.56 0.39 96 1011.8
20260904024524 70 277 0.0 0.0 0.00 0.47 0.19 96 1010.9
20260904023025 70 277 0.0 1.0 0.00 0.47 0.19 95 1010.8